Time,TemperatureF,DewpointF,PressureIn,WindDirection,WindDirectionDegrees,WindSpeedMPH,WindSpeedGustMPH,Humidity,HourlyPrecipIn,Conditions,Clouds,dailyrainin,SolarRadiationWatts/m^2,SoftwareType,DateUTC
2013-06-11 00:01:00,57.4,56.2,30.03,East,90,5.0,9.0,96,0.10,,,0.37,0,HR-IXPWINDi_r2_v1.2.,2013-06-11 04:01:00,
2013-06-11 00:06:00,57.4,56.2,30.03,ENE,61,8.0,10.0,96,0.16,,,0.39,0,HR-IXPWINDi_r2_v1.2.,2013-06-11 04:06:00,
2013-06-11 00:11:00,57.3,56.1,30.03,ENE,76,3.0,12.0,96,0.22,,,0.41,0,HR-IXPWINDi_r2_v1.2.,2013-06-11 04:11:00,
2013-06-11 00:17:00,57.3,56.1,30.03,ENE,61,4.0,12.0,96,0.23,,,0.43,0,HR-IXPWINDi_r2_v1.2.,2013-06-11 04:17:00,
2013-06-11 00:22:00,57.3,56.1,30.02,NE,52,5.0,9.0,96,0.14,,,0.44,0,HR-IXPWINDi_r2_v1.2.,2013-06-11 04:22:00,
2013-06-11 00:27:00,57.4,56.2,30.02,East,92,5.0,9.0,96,0.12,,,0.45,0,HR-IXPWINDi_r2_v1.2.,2013-06-11 04:27:00,
2013-06-11 00:32:00,57.4,56.2,30.02,NE,34,8.0,11.0,96,0.09,,,0.46,0,HR-IXPWINDi_r2_v1.2.,2013-06-11 04:32:00,
2013-06-11 00:37:00,57.4,56.2,30.02,East,85,11.0,11.0,96,0.08,,,0.47,0,HR-IXPWINDi_r2_v1.2.,2013-06-11 04:37:00,
2013-06-11 00:42:00,57.5,56.3,30.01,ENE,78,5.0,14.0,96,0.17,,,0.48,0,HR-IXPWINDi_r2_v1.2.,2013-06-11 04:42:00,
2013-06-11 00:48:00,57.5,56.3,30.01,ENE,71,5.0,14.0,96,0.13,,,0.49,0,HR-IXPWINDi_r2_v1.2.,2013-06-11 04:48:00,
2013-06-11 00:53:00,57.5,56.3,30.00,ESE,110,8.0,10.0,96,0.11,,,0.50,0,HR-IXPWINDi_r2_v1.2.,2013-06-11 04:53:00,
2013-06-11 00:58:00,57.4,56.2,30.00,ENE,59,4.0,15.0,96,0.07,,,0.50,0,HR-IXPWINDi_r2_v1.2.,2013-06-11 04:58:00,
2013-06-11 01:04:00,57.3,56.1,30.00,ENE,69,12.0,15.0,96,0.06,,,0.51,0,HR-IXPWINDi_r2_v1.2.,2013-06-11 05:04:00,
2013-06-11 01:09:00,57.2,56.0,29.99,ENE,67,5.0,16.0,96,0.06,,,0.51,0,HR-IXPWINDi_r2_v1.2.,2013-06-11 05:09:00,
2013-06-11 01:14:00,57.1,55.9,29.98,ENE,74,15.0,16.0,96,0.04,,,0.51,0,HR-IXPWINDi_r2_v1.2.,2013-06-11 05:14:00,
2013-06-11 01:20:00,56.9,55.7,29.98,ENE,61,4.0,16.0,96,0.00,,,0.51,0,HR-IXPWINDi_r2_v1.2.,2013-06-11 05:20:00,
2013-06-11 01:25:00,56.8,55.6,29.98,East,90,3.0,18.0,96,0.00,,,0.52,0,HR-IXPWINDi_r2_v1.2.,2013-06-11 05:25:00,
2013-06-11 01:30:00,56.8,55.6,29.98,ESE,113,3.0,19.0,96,0.00,,,0.52,0,HR-IXPWINDi_r2_v1.2.,2013-06-11 05:30:00,
2013-06-11 01:35:00,56.8,55.6,29.97,East,81,5.0,19.0,96,0.00,,,0.52,0,HR-IXPWINDi_r2_v1.2.,2013-06-11 05:35:00,
2013-06-11 01:40:00,56.8,55.6,29.97,North,5,2.0,16.0,96,0.00,,,0.52,0,HR-IXPWINDi_r2_v1.2.,2013-06-11 05:40:00,
2013-06-11 01:45:00,56.7,55.5,29.96,NE,55,6.0,16.0,96,0.00,,,0.52,0,HR-IXPWINDi_r2_v1.2.,2013-06-11 05:45:00,
2013-06-11 01:50:00,56.7,55.5,29.96,ENE,65,5.0,16.0,96,0.00,,,0.52,0,HR-IXPWINDi_r2_v1.2.,2013-06-11 05:50:00,
2013-06-11 01:56:00,56.7,55.5,29.96,ESE,104,3.0,14.0,96,0.00,,,0.52,0,HR-IXPWINDi_r2_v1.2.,2013-06-11 05:56:00,
2013-06-11 02:01:00,56.6,55.4,29.97,NE,55,10.0,14.0,96,0.00,,,0.53,0,HR-IXPWINDi_r2_v1.2.,2013-06-11 06:01:00,
2013-06-11 02:06:00,56.5,55.3,29.96,ENE,70,4.0,14.0,96,0.34,,,0.55,0,HR-IXPWINDi_r2_v1.2.,2013-06-11 06:06:00,
2013-06-11 02:11:00,56.4,55.2,29.96,ENE,78,7.0,17.0,96,0.21,,,0.56,0,HR-IXPWINDi_r2_v1.2.,2013-06-11 06:11:00,
2013-06-11 02:16:00,56.4,55.2,29.94,ENE,60,7.0,17.0,96,0.16,,,0.58,0,HR-IXPWINDi_r2_v1.2.,2013-06-11 06:16:00,
2013-06-11 02:21:00,56.0,54.8,29.94,ENE,78,17.0,22.0,96,0.17,,,0.59,0,HR-IXPWINDi_r2_v1.2.,2013-06-11 06:21:00,
2013-06-11 02:26:00,55.8,54.6,29.94,ENE,71,11.0,22.0,96,0.09,,,0.60,0,HR-IXPWINDi_r2_v1.2.,2013-06-11 06:26:00,
2013-06-11 02:31:00,55.9,54.7,29.93,ENE,76,7.0,17.0,96,0.09,,,0.60,0,HR-IXPWINDi_r2_v1.2.,2013-06-11 06:31:00,
2013-06-11 02:37:00,56.0,54.8,29.93,East,100,7.0,17.0,96,0.05,,,0.60,0,HR-IXPWINDi_r2_v1.2.,2013-06-11 06:37:00,
2013-06-11 02:42:00,56.0,54.8,29.93,NE,50,10.0,21.0,96,0.00,,,0.60,0,HR-IXPWINDi_r2_v1.2.,2013-06-11 06:42:00,
2013-06-11 02:47:00,56.0,54.8,29.92,ENE,71,7.0,21.0,96,0.00,,,0.61,0,HR-IXPWINDi_r2_v1.2.,2013-06-11 06:47:00,
2013-06-11 02:52:00,56.0,54.8,29.92,East,90,8.0,18.0,96,0.00,,,0.61,0,HR-IXPWINDi_r2_v1.2.,2013-06-11 06:52:00,
2013-06-11 02:57:00,56.0,54.8,29.92,NE,51,11.0,18.0,96,0.00,,,0.61,0,HR-IXPWINDi_r2_v1.2.,2013-06-11 06:57:00,
2013-06-11 03:02:00,56.1,54.9,29.92,NE,53,8.0,19.0,96,0.04,,,0.62,0,HR-IXPWINDi_r2_v1.2.,2013-06-11 07:02:00,
2013-06-11 03:08:00,56.2,55.0,29.91,ENE,59,4.0,19.0,96,0.11,,,0.63,0,HR-IXPWINDi_r2_v1.2.,2013-06-11 07:08:00,
2013-06-11 03:13:00,56.2,55.0,29.91,ENE,71,13.0,16.0,96,0.22,,,0.65,0,HR-IXPWINDi_r2_v1.2.,2013-06-11 07:13:00,
2013-06-11 03:18:00,56.2,55.0,29.90,ENE,74,15.0,19.0,96,0.20,,,0.66,0,HR-IXPWINDi_r2_v1.2.,2013-06-11 07:18:00,
2013-06-11 03:23:00,56.3,55.1,29.90,ESE,109,11.0,19.0,96,0.13,,,0.68,0,HR-IXPWINDi_r2_v1.2.,2013-06-11 07:23:00,
2013-06-11 03:28:00,56.4,55.2,29.90,ENE,74,7.0,17.0,96,0.10,,,0.68,0,HR-IXPWINDi_r2_v1.2.,2013-06-11 07:28:00,
2013-06-11 03:34:00,56.4,55.2,29.89,ENE,65,7.0,17.0,96,0.57,,,0.73,0,HR-IXPWINDi_r2_v1.2.,2013-06-11 07:34:00,
2013-06-11 03:39:00,56.4,55.2,29.89,NE,49,4.0,17.0,96,0.44,,,0.77,0,HR-IXPWINDi_r2_v1.2.,2013-06-11 07:39:00,
2013-06-11 03:44:00,56.4,55.2,29.89,ENE,61,7.0,17.0,96,0.20,,,0.79,0,HR-IXPWINDi_r2_v1.2.,2013-06-11 07:44:00,
2013-06-11 03:49:00,56.4,55.2,29.88,ENE,65,14.0,16.0,96,0.12,,,0.80,0,HR-IXPWINDi_r2_v1.2.,2013-06-11 07:49:00,
2013-06-11 03:54:00,56.4,55.2,29.88,NE,51,7.0,17.0,96,0.10,,,0.80,0,HR-IXPWINDi_r2_v1.2.,2013-06-11 07:54:00,
2013-06-11 03:59:00,56.4,55.2,29.87,ENE,77,8.0,17.0,96,0.05,,,0.80,0,HR-IXPWINDi_r2_v1.2.,2013-06-11 07:59:00,
2013-06-11 04:05:00,56.3,55.1,29.87,ENE,65,7.0,15.0,96,0.04,,,0.80,0,HR-IXPWINDi_r2_v1.2.,2013-06-11 08:05:00,
2013-06-11 04:10:00,56.2,55.0,29.87,ENE,65,16.0,16.0,96,0.00,,,0.81,0,HR-IXPWINDi_r2_v1.2.,2013-06-11 08:10:00,
2013-06-11 04:15:00,56.2,55.0,29.86,NE,55,9.0,16.0,96,0.22,,,0.83,0,HR-IXPWINDi_r2_v1.2.,2013-06-11 08:15:00,
2013-06-11 04:20:00,56.2,55.3,29.86,NE,49,6.0,16.0,97,0.58,,,0.86,0,HR-IXPWINDi_r2_v1.2.,2013-06-11 08:20:00,
2013-06-11 04:26:00,56.2,55.3,29.86,ENE,58,7.0,17.0,97,0.25,,,0.88,0,HR-IXPWINDi_r2_v1.2.,2013-06-11 08:26:00,
2013-06-11 04:31:00,56.2,55.3,29.86,NE,42,9.0,18.0,97,0.09,,,0.89,0,HR-IXPWINDi_r2_v1.2.,2013-06-11 08:31:00,
2013-06-11 04:36:00,56.2,55.3,29.85,NE,40,8.0,18.0,97,0.09,,,0.89,0,HR-IXPWINDi_r2_v1.2.,2013-06-11 08:36:00,
2013-06-11 04:42:00,56.2,55.3,29.85,NE,41,8.0,17.0,97,0.06,,,0.89,0,HR-IXPWINDi_r2_v1.2.,2013-06-11 08:42:00,
2013-06-11 04:47:00,56.2,55.3,29.84,ENE,76,14.0,20.0,97,0.04,,,0.90,0,HR-IXPWINDi_r2_v1.2.,2013-06-11 08:47:00,
2013-06-11 04:52:00,56.1,54.9,29.84,NNE,25,9.0,22.0,96,0.15,,,0.91,0,HR-IXPWINDi_r2_v1.2.,2013-06-11 08:52:00,
2013-06-11 04:57:00,56.0,54.8,29.84,NNE,23,10.0,22.0,96,0.12,,,0.92,0,HR-IXPWINDi_r2_v1.2.,2013-06-11 08:57:00,
2013-06-11 05:02:00,55.9,54.7,29.84,NE,39,14.0,17.0,96,0.12,,,0.93,0,HR-IXPWINDi_r2_v1.2.,2013-06-11 09:02:00,
2013-06-11 05:08:00,55.9,54.7,29.84,NNE,23,6.0,18.0,96,0.08,,,0.94,0,HR-IXPWINDi_r2_v1.2.,2013-06-11 09:08:00,
2013-06-11 05:13:00,55.9,54.7,29.83,NE,34,6.0,18.0,96,0.07,,,0.94,0,HR-IXPWINDi_r2_v1.2.,2013-06-11 09:13:00,
2013-06-11 05:18:00,55.9,55.0,29.83,ENE,57,7.0,16.0,97,0.04,,,0.94,0,HR-IXPWINDi_r2_v1.2.,2013-06-11 09:18:00,
2013-06-11 05:24:00,55.9,55.0,29.82,ENE,62,9.0,19.0,97,0.04,,,0.95,0,HR-IXPWINDi_r2_v1.2.,2013-06-11 09:24:00,
2013-06-11 05:29:00,55.9,55.0,29.82,NNE,19,6.0,19.0,97,0.04,,,0.95,0,HR-IXPWINDi_r2_v1.2.,2013-06-11 09:29:00,
2013-06-11 05:34:00,55.9,55.0,29.82,ENE,76,10.0,17.0,97,0.05,,,0.96,0,HR-IXPWINDi_r2_v1.2.,2013-06-11 09:34:00,
2013-06-11 05:39:00,56.0,55.1,29.81,NE,56,9.0,17.0,97,0.05,,,0.96,0,HR-IXPWINDi_r2_v1.2.,2013-06-11 09:39:00,
2013-06-11 05:44:00,56.0,55.1,29.82,ENE,76,4.0,16.0,97,0.06,,,0.97,0,HR-IXPWINDi_r2_v1.2.,2013-06-11 09:44:00,
2013-06-11 05:49:00,56.1,55.2,29.83,ENE,64,4.0,13.0,97,0.06,,,0.97,0,HR-IXPWINDi_r2_v1.2.,2013-06-11 09:49:00,
2013-06-11 05:54:00,56.2,55.3,29.81,NE,48,8.0,13.0,97,1.13,,,1.04,0,HR-IXPWINDi_r2_v1.2.,2013-06-11 09:54:00,
2013-06-11 05:59:00,56.2,55.3,29.81,NE,52,12.0,13.0,97,0.24,,,1.07,0,HR-IXPWINDi_r2_v1.2.,2013-06-11 09:59:00,
2013-06-11 06:04:00,56.3,55.4,29.80,NNE,23,7.0,13.0,97,0.13,,,1.08,7,HR-IXPWINDi_r2_v1.2.,2013-06-11 10:04:00,
2013-06-11 06:09:00,56.5,55.6,29.79,ENE,67,9.0,13.0,97,0.09,,,1.08,7,HR-IXPWINDi_r2_v1.2.,2013-06-11 10:09:00,
2013-06-11 06:14:00,56.6,55.7,29.79,NNE,32,7.0,12.0,97,0.05,,,1.08,7,HR-IXPWINDi_r2_v1.2.,2013-06-11 10:14:00,
2013-06-11 06:20:00,56.7,55.8,29.79,NE,47,6.0,13.0,97,0.04,,,1.08,11,HR-IXPWINDi_r2_v1.2.,2013-06-11 10:20:00,
2013-06-11 06:25:00,56.8,55.9,29.79,NE,52,3.0,13.0,97,0.00,,,1.08,14,HR-IXPWINDi_r2_v1.2.,2013-06-11 10:25:00,
2013-06-11 06:30:00,56.9,56.0,29.79,NE,46,8.0,13.0,97,0.00,,,1.09,14,HR-IXPWINDi_r2_v1.2.,2013-06-11 10:30:00,
2013-06-11 06:35:00,56.9,56.0,29.79,NNE,29,9.0,13.0,97,0.00,,,1.09,14,HR-IXPWINDi_r2_v1.2.,2013-06-11 10:35:00,
2013-06-11 06:40:00,57.0,56.1,29.78,NE,46,7.0,12.0,97,0.00,,,1.09,14,HR-IXPWINDi_r2_v1.2.,2013-06-11 10:40:00,
2013-06-11 06:45:00,57.0,56.1,29.78,East,94,7.0,12.0,97,0.00,,,1.09,14,HR-IXPWINDi_r2_v1.2.,2013-06-11 10:45:00,
2013-06-11 06:50:00,57.1,56.2,29.78,NE,48,5.0,11.0,97,0.00,,,1.10,12,HR-IXPWINDi_r2_v1.2.,2013-06-11 10:50:00,
2013-06-11 06:55:00,57.1,56.2,29.77,NNE,28,4.0,11.0,97,0.00,,,1.10,14,HR-IXPWINDi_r2_v1.2.,2013-06-11 10:55:00,
2013-06-11 07:01:00,57.1,56.2,29.77,NE,46,4.0,11.0,97,0.12,,,1.11,14,HR-IXPWINDi_r2_v1.2.,2013-06-11 11:01:00,
2013-06-11 07:06:00,57.1,56.2,29.77,NE,53,4.0,11.0,97,0.11,,,1.12,16,HR-IXPWINDi_r2_v1.2.,2013-06-11 11:06:00,
2013-06-11 07:11:00,57.1,56.2,29.76,North,5,5.0,11.0,97,0.09,,,1.13,28,HR-IXPWINDi_r2_v1.2.,2013-06-11 11:11:00,
2013-06-11 07:16:00,57.2,56.3,29.76,NNE,20,6.0,13.0,97,0.14,,,1.15,28,HR-IXPWINDi_r2_v1.2.,2013-06-11 11:16:00,
2013-06-11 07:21:00,57.3,56.4,29.76,NNE,30,6.0,13.0,97,0.11,,,1.15,23,HR-IXPWINDi_r2_v1.2.,2013-06-11 11:21:00,
2013-06-11 07:26:00,57.2,56.3,29.76,NNE,29,6.0,10.0,97,0.10,,,1.16,19,HR-IXPWINDi_r2_v1.2.,2013-06-11 11:26:00,
2013-06-11 07:32:00,57.2,56.3,29.75,NE,44,6.0,10.0,97,0.06,,,1.16,30,HR-IXPWINDi_r2_v1.2.,2013-06-11 11:32:00,
2013-06-11 07:37:00,57.3,56.4,29.75,NNE,29,4.0,13.0,97,0.06,,,1.17,30,HR-IXPWINDi_r2_v1.2.,2013-06-11 11:37:00,
2013-06-11 07:42:00,57.3,56.4,29.75,NNE,24,5.0,13.0,97,0.06,,,1.17,25,HR-IXPWINDi_r2_v1.2.,2013-06-11 11:42:00,
2013-06-11 07:47:00,57.3,56.4,29.75,NNE,22,7.0,9.0,97,0.04,,,1.17,23,HR-IXPWINDi_r2_v1.2.,2013-06-11 11:47:00,
2013-06-11 07:53:00,57.2,56.3,29.74,ENE,73,7.0,11.0,97,0.00,,,1.17,25,HR-IXPWINDi_r2_v1.2.,2013-06-11 11:53:00,
2013-06-11 07:58:00,57.3,56.4,29.74,NNE,17,4.0,11.0,97,0.00,,,1.17,30,HR-IXPWINDi_r2_v1.2.,2013-06-11 11:58:00,
2013-06-11 08:03:00,57.3,56.4,29.74,NNE,32,6.0,11.0,97,0.00,,,1.17,32,HR-IXPWINDi_r2_v1.2.,2013-06-11 12:03:00,
2013-06-11 08:08:00,57.3,56.4,29.73,ENE,58,7.0,10.0,97,0.00,,,1.17,40,HR-IXPWINDi_r2_v1.2.,2013-06-11 12:08:00,
2013-06-11 08:13:00,57.4,56.5,29.73,NE,39,6.0,10.0,97,0.00,,,1.17,35,HR-IXPWINDi_r2_v1.2.,2013-06-11 12:13:00,
2013-06-11 08:18:00,57.4,56.5,29.73,NNE,19,7.0,10.0,97,0.00,,,1.17,42,HR-IXPWINDi_r2_v1.2.,2013-06-11 12:18:00,
2013-06-11 08:23:00,57.5,56.6,29.72,NNE,28,4.0,9.0,97,0.00,,,1.17,33,HR-IXPWINDi_r2_v1.2.,2013-06-11 12:23:00,
2013-06-11 08:28:00,57.5,56.6,29.72,NE,34,5.0,9.0,97,0.00,,,1.17,69,HR-IXPWINDi_r2_v1.2.,2013-06-11 12:28:00,
2013-06-11 08:33:00,57.8,56.9,29.72,NE,42,4.0,8.0,97,0.00,,,1.18,54,HR-IXPWINDi_r2_v1.2.,2013-06-11 12:33:00,
2013-06-11 08:38:00,57.8,56.9,29.72,NE,52,2.0,7.0,97,0.00,,,1.18,93,HR-IXPWINDi_r2_v1.2.,2013-06-11 12:38:00,
2013-06-11 08:43:00,58.0,57.1,29.72,NNE,26,5.0,7.0,97,0.00,,,1.18,91,HR-IXPWINDi_r2_v1.2.,2013-06-11 12:43:00,
2013-06-11 08:49:00,58.1,57.2,29.71,NNE,13,4.0,7.0,97,0.00,,,1.18,104,HR-IXPWINDi_r2_v1.2.,2013-06-11 12:49:00,
2013-06-11 08:54:00,58.3,57.4,29.71,North,360,7.0,9.0,97,0.00,,,1.18,114,HR-IXPWINDi_r2_v1.2.,2013-06-11 12:54:00,
2013-06-11 08:59:00,58.3,57.4,29.71,NNW,348,7.0,9.0,97,0.00,,,1.18,132,HR-IXPWINDi_r2_v1.2.,2013-06-11 12:59:00,
2013-06-11 09:04:00,58.3,57.4,29.71,North,11,8.0,9.0,97,0.00,,,1.18,125,HR-IXPWINDi_r2_v1.2.,2013-06-11 13:04:00,
2013-06-11 09:09:00,58.5,57.6,29.71,North,9,6.0,9.0,97,0.00,,,1.18,207,HR-IXPWINDi_r2_v1.2.,2013-06-11 13:09:00,
2013-06-11 09:14:00,58.7,57.8,29.70,NE,34,6.0,10.0,97,0.00,,,1.18,160,HR-IXPWINDi_r2_v1.2.,2013-06-11 13:14:00,
2013-06-11 09:20:00,58.9,58.3,29.70,NNE,31,6.0,10.0,98,0.00,,,1.18,236,HR-IXPWINDi_r2_v1.2.,2013-06-11 13:20:00,
2013-06-11 09:25:00,58.9,58.0,29.70,North,5,5.0,11.0,97,0.00,,,1.18,272,HR-IXPWINDi_r2_v1.2.,2013-06-11 13:25:00,
2013-06-11 09:30:00,59.5,58.9,29.69,North,360,7.0,11.0,98,0.00,,,1.18,216,HR-IXPWINDi_r2_v1.2.,2013-06-11 13:30:00,
2013-06-11 09:35:00,59.6,59.0,29.69,NNE,24,7.0,9.0,98,0.00,,,1.18,236,HR-IXPWINDi_r2_v1.2.,2013-06-11 13:35:00,
2013-06-11 09:40:00,59.3,58.4,29.69,North,360,6.0,11.0,97,0.00,,,1.18,218,HR-IXPWINDi_r2_v1.2.,2013-06-11 13:40:00,
2013-06-11 09:45:00,59.1,58.2,29.69,North,360,6.0,11.0,97,0.00,,,1.18,260,HR-IXPWINDi_r2_v1.2.,2013-06-11 13:45:00,
2013-06-11 09:51:00,59.4,58.5,29.69,NNE,22,6.0,11.0,97,0.00,,,1.18,258,HR-IXPWINDi_r2_v1.2.,2013-06-11 13:51:00,
2013-06-11 09:56:00,59.6,58.7,29.69,NNW,344,6.0,10.0,97,0.00,,,1.18,297,HR-IXPWINDi_r2_v1.2.,2013-06-11 13:56:00,
2013-06-11 10:01:00,59.5,58.6,29.69,NNW,335,7.0,11.0,97,0.00,,,1.18,299,HR-IXPWINDi_r2_v1.2.,2013-06-11 14:01:00,
2013-06-11 10:06:00,59.6,58.7,29.69,NW,325,9.0,11.0,97,0.00,,,1.18,229,HR-IXPWINDi_r2_v1.2.,2013-06-11 14:06:00,
2013-06-11 10:12:00,59.6,58.7,29.69,North,9,3.0,11.0,97,0.00,,,1.18,213,HR-IXPWINDi_r2_v1.2.,2013-06-11 14:12:00,
2013-06-11 10:17:00,59.8,58.9,29.69,NW,314,5.0,10.0,97,0.00,,,1.18,239,HR-IXPWINDi_r2_v1.2.,2013-06-11 14:17:00,
2013-06-11 10:23:00,59.7,58.8,29.69,NNW,348,5.0,10.0,97,0.00,,,1.18,287,HR-IXPWINDi_r2_v1.2.,2013-06-11 14:23:00,
2013-06-11 10:28:00,59.7,58.5,29.69,NNW,348,5.0,12.0,96,0.00,,,1.18,262,HR-IXPWINDi_r2_v1.2.,2013-06-11 14:28:00,
2013-06-11 10:33:00,59.7,58.5,29.69,North,349,2.0,12.0,96,0.00,,,1.18,216,HR-IXPWINDi_r2_v1.2.,2013-06-11 14:33:00,
2013-06-11 10:39:00,59.8,58.6,29.69,NNW,328,8.0,10.0,96,0.00,,,1.18,301,HR-IXPWINDi_r2_v1.2.,2013-06-11 14:39:00,
2013-06-11 10:44:00,59.8,58.6,29.69,NNW,341,3.0,10.0,96,0.00,,,1.18,227,HR-IXPWINDi_r2_v1.2.,2013-06-11 14:44:00,
2013-06-11 10:49:00,59.9,58.7,29.69,WNW,292,5.0,10.0,96,0.00,,,1.18,239,HR-IXPWINDi_r2_v1.2.,2013-06-11 14:49:00,
2013-06-11 10:54:00,60.0,58.5,29.69,NW,308,3.0,10.0,95,0.00,,,1.18,237,HR-IXPWINDi_r2_v1.2.,2013-06-11 14:54:00,
2013-06-11 10:59:00,59.8,58.3,29.69,NNW,348,3.0,10.0,95,0.00,,,1.18,179,HR-IXPWINDi_r2_v1.2.,2013-06-11 14:59:00,
2013-06-11 11:04:00,59.8,58.3,29.69,NNE,15,6.0,9.0,95,0.00,,,1.18,292,HR-IXPWINDi_r2_v1.2.,2013-06-11 15:04:00,
2013-06-11 11:09:00,59.9,58.1,29.69,WNW,290,4.0,10.0,94,0.00,,,1.18,272,HR-IXPWINDi_r2_v1.2.,2013-06-11 15:09:00,
2013-06-11 11:15:00,59.6,57.8,29.69,WNW,292,6.0,11.0,94,0.00,,,1.18,352,HR-IXPWINDi_r2_v1.2.,2013-06-11 15:15:00,
2013-06-11 11:20:00,60.1,58.3,29.69,WNW,294,0.0,11.0,94,0.00,,,1.18,366,HR-IXPWINDi_r2_v1.2.,2013-06-11 15:20:00,
2013-06-11 11:25:00,60.2,58.1,29.69,WNW,297,8.0,12.0,93,0.00,,,1.18,341,HR-IXPWINDi_r2_v1.2.,2013-06-11 15:25:00,
2013-06-11 11:30:00,60.1,58.0,29.69,NW,308,8.0,12.0,93,0.00,,,1.18,373,HR-IXPWINDi_r2_v1.2.,2013-06-11 15:30:00,
2013-06-11 11:35:00,60.4,58.0,29.69,North,360,8.0,11.0,92,0.00,,,1.18,367,HR-IXPWINDi_r2_v1.2.,2013-06-11 15:35:00,
2013-06-11 11:41:00,60.5,58.1,29.69,NNW,330,3.0,9.0,92,0.00,,,1.18,299,HR-IXPWINDi_r2_v1.2.,2013-06-11 15:41:00,
2013-06-11 11:46:00,60.4,57.7,29.69,North,5,6.0,10.0,91,0.00,,,1.18,369,HR-IXPWINDi_r2_v1.2.,2013-06-11 15:46:00,
2013-06-11 11:51:00,60.3,57.6,29.69,NNE,15,3.0,11.0,91,0.00,,,1.18,292,HR-IXPWINDi_r2_v1.2.,2013-06-11 15:51:00,
2013-06-11 11:57:00,60.7,58.0,29.69,North,5,4.0,11.0,91,0.00,,,1.18,244,HR-IXPWINDi_r2_v1.2.,2013-06-11 15:57:00,
2013-06-11 12:02:00,60.7,58.0,29.69,NW,316,6.0,10.0,91,0.00,,,0.00,306,HR-IXPWINDi_r2_v1.2.,2013-06-11 16:02:00,
2013-06-11 12:07:00,60.7,58.3,29.69,NW,309,10.0,10.0,92,0.00,,,0.00,301,HR-IXPWINDi_r2_v1.2.,2013-06-11 16:07:00,
2013-06-11 12:12:00,60.3,57.6,29.69,NW,319,8.0,10.0,91,0.00,,,0.00,294,HR-IXPWINDi_r2_v1.2.,2013-06-11 16:12:00,
2013-06-11 12:17:00,60.2,57.5,29.69,NW,308,7.0,10.0,91,0.00,,,0.00,244,HR-IXPWINDi_r2_v1.2.,2013-06-11 16:17:00,
2013-06-11 12:22:00,60.2,57.5,29.69,North,355,4.0,10.0,91,0.00,,,0.00,204,HR-IXPWINDi_r2_v1.2.,2013-06-11 16:22:00,
2013-06-11 12:27:00,60.5,57.8,29.69,NE,37,5.0,11.0,91,0.00,,,0.00,285,HR-IXPWINDi_r2_v1.2.,2013-06-11 16:27:00,
2013-06-11 12:32:00,61.1,58.1,29.69,WNW,287,3.0,11.0,90,0.00,,,0.00,311,HR-IXPWINDi_r2_v1.2.,2013-06-11 16:32:00,
2013-06-11 12:38:00,60.6,57.6,29.69,North,360,4.0,11.0,90,0.00,,,0.00,271,HR-IXPWINDi_r2_v1.2.,2013-06-11 16:38:00,
2013-06-11 12:43:00,60.8,57.8,29.69,NNE,20,4.0,11.0,90,0.00,,,0.00,255,HR-IXPWINDi_r2_v1.2.,2013-06-11 16:43:00,
2013-06-11 12:48:00,60.7,57.7,29.69,North,355,5.0,12.0,90,0.00,,,0.00,232,HR-IXPWINDi_r2_v1.2.,2013-06-11 16:48:00,
2013-06-11 12:53:00,60.7,57.7,29.69,NW,326,4.0,12.0,90,0.00,,,0.00,243,HR-IXPWINDi_r2_v1.2.,2013-06-11 16:53:00,
2013-06-11 12:59:00,60.4,57.4,29.69,NW,316,4.0,10.0,90,0.00,,,0.00,223,HR-IXPWINDi_r2_v1.2.,2013-06-11 16:59:00,
2013-06-11 13:04:00,60.9,58.2,29.69,NE,43,3.0,7.0,91,0.00,,,0.00,192,HR-IXPWINDi_r2_v1.2.,2013-06-11 17:04:00,
2013-06-11 13:09:00,60.7,58.0,29.69,North,355,1.0,7.0,91,0.00,,,0.00,199,HR-IXPWINDi_r2_v1.2.,2013-06-11 17:09:00,
2013-06-11 13:14:00,60.7,57.7,29.69,NW,319,1.0,7.0,90,0.00,,,0.00,272,HR-IXPWINDi_r2_v1.2.,2013-06-11 17:14:00,
2013-06-11 13:20:00,60.7,57.7,29.69,NNW,330,6.0,10.0,90,0.00,,,0.00,207,HR-IXPWINDi_r2_v1.2.,2013-06-11 17:20:00,
2013-06-11 13:25:00,60.9,57.9,29.69,West,271,5.0,10.0,90,0.00,,,0.00,232,HR-IXPWINDi_r2_v1.2.,2013-06-11 17:25:00,
2013-06-11 13:30:00,60.7,57.7,29.69,WNW,293,0.0,9.0,90,0.00,,,0.00,199,HR-IXPWINDi_r2_v1.2.,2013-06-11 17:30:00,
2013-06-11 13:35:00,61.2,58.2,29.69,NW,309,5.0,9.0,90,0.00,,,0.00,181,HR-IXPWINDi_r2_v1.2.,2013-06-11 17:35:00,
2013-06-11 13:40:00,61.2,57.9,29.69,West,261,2.0,5.0,89,0.00,,,0.00,216,HR-IXPWINDi_r2_v1.2.,2013-06-11 17:40:00,
2013-06-11 13:46:00,61.0,57.7,29.68,West,279,6.0,11.0,89,0.00,,,0.00,223,HR-IXPWINDi_r2_v1.2.,2013-06-11 17:46:00,
2013-06-11 13:51:00,61.1,58.1,29.68,NW,313,0.0,11.0,90,0.00,,,0.00,237,HR-IXPWINDi_r2_v1.2.,2013-06-11 17:51:00,
2013-06-11 13:56:00,61.3,58.3,29.68,NNE,12,3.0,8.0,90,0.00,,,0.00,232,HR-IXPWINDi_r2_v1.2.,2013-06-11 17:56:00,
2013-06-11 14:02:00,61.6,58.3,29.67,WNW,288,5.0,8.0,89,0.00,,,0.00,207,HR-IXPWINDi_r2_v1.2.,2013-06-11 18:02:00,
2013-06-11 14:07:00,61.3,58.0,29.67,NW,326,7.0,9.0,89,0.00,,,0.00,239,HR-IXPWINDi_r2_v1.2.,2013-06-11 18:07:00,
2013-06-11 14:12:00,61.7,58.0,29.67,NNW,340,0.0,9.0,88,0.00,,,0.00,265,HR-IXPWINDi_r2_v1.2.,2013-06-11 18:12:00,
2013-06-11 14:17:00,61.8,58.1,29.67,WNW,288,5.0,8.0,88,0.00,,,0.00,287,HR-IXPWINDi_r2_v1.2.,2013-06-11 18:17:00,
2013-06-11 14:22:00,61.4,57.7,29.67,NNW,327,4.0,8.0,88,0.00,,,0.00,301,HR-IXPWINDi_r2_v1.2.,2013-06-11 18:22:00,
2013-06-11 14:27:00,62.0,58.3,29.67,NNE,32,2.0,8.0,88,0.00,,,0.00,250,HR-IXPWINDi_r2_v1.2.,2013-06-11 18:27:00,
2013-06-11 14:32:00,62.2,57.9,29.67,NW,321,0.0,7.0,86,0.00,,,0.00,246,HR-IXPWINDi_r2_v1.2.,2013-06-11 18:32:00,
2013-06-11 14:38:00,62.1,58.1,29.67,NE,48,3.0,7.0,87,0.00,,,0.00,283,HR-IXPWINDi_r2_v1.2.,2013-06-11 18:38:00,
2013-06-11 14:43:00,62.0,57.7,29.67,North,349,1.0,6.0,86,0.00,,,0.00,348,HR-IXPWINDi_r2_v1.2.,2013-06-11 18:43:00,
2013-06-11 14:48:00,62.5,58.5,29.67,NE,40,1.0,9.0,87,0.00,,,0.00,490,HR-IXPWINDi_r2_v1.2.,2013-06-11 18:48:00,
2013-06-11 14:53:00,63.1,58.5,29.67,NW,316,3.0,9.0,85,0.00,,,0.00,292,HR-IXPWINDi_r2_v1.2.,2013-06-11 18:53:00,
2013-06-11 14:58:00,63.1,58.5,29.67,WNW,284,1.0,7.0,85,0.00,,,0.00,229,HR-IXPWINDi_r2_v1.2.,2013-06-11 18:58:00,
2013-06-11 15:04:00,62.3,57.7,29.67,WSW,244,5.0,7.0,85,0.00,,,0.00,258,HR-IXPWINDi_r2_v1.2.,2013-06-11 19:04:00,
2013-06-11 15:09:00,62.4,58.1,29.67,NNW,346,1.0,7.0,86,0.00,,,0.00,396,HR-IXPWINDi_r2_v1.2.,2013-06-11 19:09:00,
2013-06-11 15:14:00,63.3,58.3,29.66,North,351,4.0,6.0,84,0.00,,,0.00,341,HR-IXPWINDi_r2_v1.2.,2013-06-11 19:14:00,
2013-06-11 15:19:00,63.2,57.9,29.66,NNW,329,1.0,6.0,83,0.00,,,0.00,334,HR-IXPWINDi_r2_v1.2.,2013-06-11 19:19:00,
2013-06-11 15:24:00,63.3,58.3,29.66,NNW,329,3.0,5.0,84,0.00,,,0.00,429,HR-IXPWINDi_r2_v1.2.,2013-06-11 19:24:00,
2013-06-11 15:29:00,63.2,58.2,29.65,North,355,4.0,7.0,84,0.00,,,0.00,262,HR-IXPWINDi_r2_v1.2.,2013-06-11 19:29:00,
2013-06-11 15:35:00,63.2,58.2,29.65,NNE,32,5.0,8.0,84,0.00,,,0.00,316,HR-IXPWINDi_r2_v1.2.,2013-06-11 19:35:00,
2013-06-11 15:40:00,63.4,58.1,29.65,North,5,8.0,9.0,83,0.00,,,0.00,278,HR-IXPWINDi_r2_v1.2.,2013-06-11 19:40:00,
2013-06-11 15:45:00,63.0,57.7,29.65,North,9,3.0,9.0,83,0.00,,,0.00,209,HR-IXPWINDi_r2_v1.2.,2013-06-11 19:45:00,
2013-06-11 15:50:00,62.8,57.8,29.65,NE,36,5.0,9.0,84,0.00,,,0.00,213,HR-IXPWINDi_r2_v1.2.,2013-06-11 19:50:00,
2013-06-11 15:55:00,63.1,58.1,29.65,North,355,7.0,8.0,84,0.00,,,0.00,172,HR-IXPWINDi_r2_v1.2.,2013-06-11 19:55:00,
2013-06-11 16:00:00,62.9,57.9,29.65,NNE,20,4.0,8.0,84,0.00,,,0.00,169,HR-IXPWINDi_r2_v1.2.,2013-06-11 20:00:00,
2013-06-11 16:05:00,62.9,57.9,29.64,NNE,22,4.0,10.0,84,0.00,,,0.00,237,HR-IXPWINDi_r2_v1.2.,2013-06-11 20:05:00,
2013-06-11 16:10:00,63.2,58.2,29.64,NNW,330,6.0,10.0,84,0.00,,,0.00,234,HR-IXPWINDi_r2_v1.2.,2013-06-11 20:10:00,
2013-06-11 16:16:00,62.8,57.8,29.64,NNW,327,0.0,7.0,84,0.00,,,0.00,265,HR-IXPWINDi_r2_v1.2.,2013-06-11 20:16:00,
2013-06-11 16:21:00,62.3,57.3,29.64,WNW,284,2.0,7.0,84,0.00,,,0.00,230,HR-IXPWINDi_r2_v1.2.,2013-06-11 20:21:00,
2013-06-11 16:26:00,62.6,57.6,29.64,NNW,332,3.0,8.0,84,0.00,,,0.00,229,HR-IXPWINDi_r2_v1.2.,2013-06-11 20:26:00,
2013-06-11 16:32:00,62.7,57.4,29.64,NW,325,1.0,8.0,83,0.00,,,0.00,144,HR-IXPWINDi_r2_v1.2.,2013-06-11 20:32:00,
2013-06-11 16:37:00,62.7,57.7,29.64,North,5,5.0,7.0,84,0.00,,,0.00,109,HR-IXPWINDi_r2_v1.2.,2013-06-11 20:37:00,
2013-06-11 16:42:00,62.7,57.7,29.63,NNE,24,3.0,7.0,84,0.00,,,0.00,134,HR-IXPWINDi_r2_v1.2.,2013-06-11 20:42:00,
2013-06-11 16:47:00,62.6,57.6,29.63,NNW,328,3.0,7.0,84,0.00,,,0.00,229,HR-IXPWINDi_r2_v1.2.,2013-06-11 20:47:00,
2013-06-11 16:52:00,62.7,57.7,29.63,NNE,13,3.0,6.0,84,0.00,,,0.00,234,HR-IXPWINDi_r2_v1.2.,2013-06-11 20:52:00,
2013-06-11 16:57:00,63.1,58.1,29.63,WNW,302,0.0,6.0,84,0.00,,,0.00,156,HR-IXPWINDi_r2_v1.2.,2013-06-11 20:57:00,
2013-06-11 17:02:00,63.5,58.2,29.63,North,5,1.0,4.0,83,0.00,,,0.00,142,HR-IXPWINDi_r2_v1.2.,2013-06-11 21:02:00,
2013-06-11 17:08:00,63.2,57.9,29.63,NE,34,3.0,4.0,83,0.00,,,0.00,125,HR-IXPWINDi_r2_v1.2.,2013-06-11 21:08:00,
2013-06-11 17:13:00,61.8,56.5,29.62,ENE,63,7.0,8.0,83,0.00,,,0.00,132,HR-IXPWINDi_r2_v1.2.,2013-06-11 21:13:00,
2013-06-11 17:19:00,61.1,56.8,29.62,ENE,63,5.0,8.0,86,0.00,,,0.00,56,HR-IXPWINDi_r2_v1.2.,2013-06-11 21:19:00,
2013-06-11 17:24:00,60.6,56.6,29.62,ENE,64,8.0,9.0,87,0.00,,,0.00,83,HR-IXPWINDi_r2_v1.2.,2013-06-11 21:24:00,
2013-06-11 17:29:00,60.7,57.1,29.61,NNE,16,6.0,9.0,88,0.00,,,0.00,137,HR-IXPWINDi_r2_v1.2.,2013-06-11 21:29:00,
2013-06-11 17:34:00,61.6,57.6,29.61,NE,50,6.0,9.0,87,0.00,,,0.00,202,HR-IXPWINDi_r2_v1.2.,2013-06-11 21:34:00,
2013-06-11 17:40:00,61.6,57.0,29.60,NE,46,7.0,12.0,85,0.00,,,0.00,74,HR-IXPWINDi_r2_v1.2.,2013-06-11 21:40:00,
2013-06-11 17:45:00,60.3,56.0,29.60,ENE,67,7.0,16.0,86,0.00,,,0.00,118,HR-IXPWINDi_r2_v1.2.,2013-06-11 21:45:00,
2013-06-11 17:50:00,59.7,56.1,29.60,NE,44,5.0,16.0,88,0.00,,,0.00,137,HR-IXPWINDi_r2_v1.2.,2013-06-11 21:50:00,
2013-06-11 17:56:00,60.0,56.4,29.60,ENE,67,9.0,12.0,88,0.00,,,0.00,98,HR-IXPWINDi_r2_v1.2.,2013-06-11 21:56:00,
2013-06-11 18:01:00,60.0,56.4,29.60,North,9,4.0,10.0,88,0.00,,,0.00,70,HR-IXPWINDi_r2_v1.2.,2013-06-11 22:01:00,
2013-06-11 18:07:00,59.9,56.3,29.60,ENE,67,5.0,10.0,88,0.00,,,0.00,54,HR-IXPWINDi_r2_v1.2.,2013-06-11 22:07:00,
2013-06-11 18:12:00,59.3,55.7,29.60,NE,49,6.0,12.0,88,0.00,,,0.00,42,HR-IXPWINDi_r2_v1.2.,2013-06-11 22:12:00,
2013-06-11 18:17:00,59.0,55.4,29.60,NE,54,6.0,12.0,88,0.00,,,0.00,32,HR-IXPWINDi_r2_v1.2.,2013-06-11 22:17:00,
2013-06-11 18:23:00,58.6,55.0,29.60,North,11,2.0,12.0,88,0.00,,,0.00,32,HR-IXPWINDi_r2_v1.2.,2013-06-11 22:23:00,
2013-06-11 18:28:00,58.5,55.2,29.60,NNE,31,6.0,12.0,89,0.00,,,0.00,35,HR-IXPWINDi_r2_v1.2.,2013-06-11 22:28:00,
2013-06-11 18:33:00,58.4,55.1,29.60,NE,55,8.0,10.0,89,0.00,,,0.00,30,HR-IXPWINDi_r2_v1.2.,2013-06-11 22:33:00,
2013-06-11 18:38:00,58.1,54.8,29.60,ENE,59,10.0,10.0,89,0.00,,,0.00,21,HR-IXPWINDi_r2_v1.2.,2013-06-11 22:38:00,
2013-06-11 18:44:00,57.8,54.5,29.59,NNE,17,9.0,10.0,89,0.00,,,0.00,11,HR-IXPWINDi_r2_v1.2.,2013-06-11 22:44:00,
2013-06-11 18:49:00,57.7,54.4,29.59,NE,50,6.0,10.0,89,0.00,,,0.00,7,HR-IXPWINDi_r2_v1.2.,2013-06-11 22:49:00,
2013-06-11 18:54:00,57.7,54.4,29.59,NE,49,6.0,11.0,89,0.00,,,0.00,5,HR-IXPWINDi_r2_v1.2.,2013-06-11 22:54:00,
2013-06-11 19:00:00,57.7,54.7,29.59,ENE,64,11.0,11.0,90,0.00,,,0.00,7,HR-IXPWINDi_r2_v1.2.,2013-06-11 23:00:00,
2013-06-11 19:05:00,57.3,54.3,29.59,NNE,29,5.0,11.0,90,0.00,,,0.01,5,HR-IXPWINDi_r2_v1.2.,2013-06-11 23:05:00,
2013-06-11 19:10:00,57.1,54.4,29.60,NE,35,2.0,11.0,91,0.12,,,0.02,0,HR-IXPWINDi_r2_v1.2.,2013-06-11 23:10:00,
2013-06-11 19:15:00,56.9,54.5,29.59,NNE,24,5.0,8.0,92,0.12,,,0.03,5,HR-IXPWINDi_r2_v1.2.,2013-06-11 23:15:00,
2013-06-11 19:20:00,56.8,54.4,29.59,NNE,25,2.0,8.0,92,0.13,,,0.05,0,HR-IXPWINDi_r2_v1.2.,2013-06-11 23:20:00,
2013-06-11 19:25:00,56.5,54.4,29.58,NNE,22,6.0,9.0,93,0.15,,,0.06,0,HR-IXPWINDi_r2_v1.2.,2013-06-11 23:25:00,
2013-06-11 19:30:00,56.1,54.0,29.58,NE,47,5.0,11.0,93,0.12,,,0.07,0,HR-IXPWINDi_r2_v1.2.,2013-06-11 23:30:00,
2013-06-11 19:36:00,56.0,53.9,29.58,NNE,26,5.0,11.0,93,0.16,,,0.08,0,HR-IXPWINDi_r2_v1.2.,2013-06-11 23:36:00,
2013-06-11 19:41:00,55.8,54.0,29.58,NNE,19,7.0,10.0,94,0.10,,,0.09,0,HR-IXPWINDi_r2_v1.2.,2013-06-11 23:41:00,
2013-06-11 19:46:00,55.8,54.0,29.58,NE,34,5.0,10.0,94,0.15,,,0.10,0,HR-IXPWINDi_r2_v1.2.,2013-06-11 23:46:00,
2013-06-11 19:51:00,55.7,53.9,29.59,NNE,22,4.0,9.0,94,0.09,,,0.11,0,HR-IXPWINDi_r2_v1.2.,2013-06-11 23:51:00,
2013-06-11 19:56:00,55.6,53.8,29.59,NNE,28,4.0,7.0,94,0.11,,,0.12,0,HR-IXPWINDi_r2_v1.2.,2013-06-11 23:56:00,
2013-06-11 20:01:00,55.4,53.6,29.59,NNE,19,6.0,10.0,94,0.15,,,0.13,0,HR-IXPWINDi_r2_v1.2.,2013-06-12 00:01:00,
2013-06-11 20:06:00,55.3,53.5,29.57,NE,40,3.0,10.0,94,0.11,,,0.14,0,HR-IXPWINDi_r2_v1.2.,2013-06-12 00:06:00,
2013-06-11 20:12:00,55.2,53.7,29.57,North,11,4.0,10.0,95,0.09,,,0.15,0,HR-IXPWINDi_r2_v1.2.,2013-06-12 00:12:00,
2013-06-11 20:17:00,55.3,53.8,29.58,NNE,15,4.0,9.0,95,0.16,,,0.16,0,HR-IXPWINDi_r2_v1.2.,2013-06-12 00:17:00,
2013-06-11 20:22:00,55.3,53.8,29.58,NNW,338,4.0,8.0,95,0.09,,,0.17,0,HR-IXPWINDi_r2_v1.2.,2013-06-12 00:22:00,
2013-06-11 20:27:00,55.1,53.6,29.60,WSW,238,4.0,7.0,95,0.09,,,0.17,0,HR-IXPWINDi_r2_v1.2.,2013-06-12 00:27:00,
2013-06-11 20:32:00,55.2,53.7,29.59,WNW,298,0.0,7.0,95,0.56,,,0.19,0,HR-IXPWINDi_r2_v1.2.,2013-06-12 00:32:00,
2013-06-11 20:38:00,55.3,53.8,29.59,NE,38,2.0,7.0,95,0.19,,,0.22,0,HR-IXPWINDi_r2_v1.2.,2013-06-12 00:38:00,
2013-06-11 20:43:00,55.4,53.9,29.59,NNE,14,0.0,4.0,95,0.13,,,0.23,0,HR-IXPWINDi_r2_v1.2.,2013-06-12 00:43:00,
2013-06-11 20:48:00,55.3,53.8,29.59,ENE,71,1.0,3.0,95,0.06,,,0.23,0,HR-IXPWINDi_r2_v1.2.,2013-06-12 00:48:00,
2013-06-11 20:53:00,55.3,53.8,29.59,East,82,0.0,3.0,95,0.04,,,0.23,0,HR-IXPWINDi_r2_v1.2.,2013-06-12 00:53:00,
2013-06-11 20:59:00,55.3,53.8,29.59,WNW,297,2.0,3.0,95,0.00,,,0.23,0,HR-IXPWINDi_r2_v1.2.,2013-06-12 00:59:00,
2013-06-11 21:04:00,55.2,53.7,29.60,WNW,283,3.0,4.0,95,0.00,,,0.24,0,HR-IXPWINDi_r2_v1.2.,2013-06-12 01:04:00,
2013-06-11 21:09:00,55.4,54.2,29.60,NW,304,0.0,5.0,96,0.00,,,0.24,0,HR-IXPWINDi_r2_v1.2.,2013-06-12 01:09:00,
2013-06-11 21:14:00,55.6,54.4,29.60,North,355,3.0,5.0,96,0.05,,,0.25,0,HR-IXPWINDi_r2_v1.2.,2013-06-12 01:14:00,
2013-06-11 21:19:00,55.5,54.3,29.60,North,360,0.0,3.0,96,0.05,,,0.25,0,HR-IXPWINDi_r2_v1.2.,2013-06-12 01:19:00,
2013-06-11 21:24:00,55.5,54.3,29.60,North,360,2.0,3.0,96,0.05,,,0.25,0,HR-IXPWINDi_r2_v1.2.,2013-06-12 01:24:00,
2013-06-11 21:29:00,55.4,54.2,29.60,North,360,2.0,2.0,96,0.04,,,0.26,0,HR-IXPWINDi_r2_v1.2.,2013-06-12 01:29:00,
2013-06-11 21:34:00,55.3,54.1,29.60,North,360,1.0,3.0,96,0.04,,,0.26,0,HR-IXPWINDi_r2_v1.2.,2013-06-12 01:34:00,
2013-06-11 21:40:00,55.3,54.1,29.60,WNW,296,0.0,3.0,96,0.04,,,0.26,0,HR-IXPWINDi_r2_v1.2.,2013-06-12 01:40:00,
2013-06-11 21:45:00,55.2,54.0,29.60,WNW,295,2.0,3.0,96,0.00,,,0.26,0,HR-IXPWINDi_r2_v1.2.,2013-06-12 01:45:00,
2013-06-11 21:50:00,55.1,53.9,29.61,WNW,295,0.0,2.0,96,0.00,,,0.26,0,HR-IXPWINDi_r2_v1.2.,2013-06-12 01:50:00,
2013-06-11 21:56:00,55.3,54.1,29.61,WNW,296,0.0,2.0,96,0.00,,,0.26,0,HR-IXPWINDi_r2_v1.2.,2013-06-12 01:56:00,
2013-06-11 22:01:00,55.4,54.2,29.61,WNW,296,0.0,1.0,96,0.00,,,0.26,0,HR-IXPWINDi_r2_v1.2.,2013-06-12 02:01:00,
2013-06-11 22:06:00,55.3,54.1,29.61,WNW,296,0.0,1.0,96,0.00,,,0.26,0,HR-IXPWINDi_r2_v1.2.,2013-06-12 02:06:00,
2013-06-11 22:12:00,55.4,54.2,29.60,WNW,296,0.0,1.0,96,0.00,,,0.26,0,HR-IXPWINDi_r2_v1.2.,2013-06-12 02:12:00,
2013-06-11 22:17:00,55.5,54.3,29.60,WNW,296,1.0,1.0,96,0.00,,,0.26,0,HR-IXPWINDi_r2_v1.2.,2013-06-12 02:17:00,
2013-06-11 22:22:00,55.7,54.5,29.60,WNW,296,0.0,1.0,96,0.00,,,0.26,0,HR-IXPWINDi_r2_v1.2.,2013-06-12 02:22:00,
2013-06-11 22:28:00,55.5,54.3,29.60,WNW,296,0.0,1.0,96,0.00,,,0.26,0,HR-IXPWINDi_r2_v1.2.,2013-06-12 02:28:00,
2013-06-11 22:33:00,55.5,54.3,29.60,WNW,296,0.0,1.0,96,0.00,,,0.26,0,HR-IXPWINDi_r2_v1.2.,2013-06-12 02:33:00,
2013-06-11 22:38:00,55.5,54.3,29.60,WNW,296,0.0,1.0,96,0.00,,,0.26,0,HR-IXPWINDi_r2_v1.2.,2013-06-12 02:38:00,
2013-06-11 22:44:00,55.5,54.3,29.60,NW,306,0.0,2.0,96,0.00,,,0.26,0,HR-IXPWINDi_r2_v1.2.,2013-06-12 02:44:00,
2013-06-11 22:49:00,55.7,54.5,29.59,NW,307,2.0,2.0,96,0.00,,,0.26,0,HR-IXPWINDi_r2_v1.2.,2013-06-12 02:49:00,
2013-06-11 22:55:00,55.6,54.4,29.60,NW,307,1.0,2.0,96,0.00,,,0.26,0,HR-IXPWINDi_r2_v1.2.,2013-06-12 02:55:00,
2013-06-11 23:00:00,55.5,54.3,29.59,NW,307,0.0,1.0,96,0.00,,,0.26,0,HR-IXPWINDi_r2_v1.2.,2013-06-12 03:00:00,
2013-06-11 23:06:00,55.6,54.4,29.59,NW,307,0.0,2.0,96,0.00,,,0.26,0,HR-IXPWINDi_r2_v1.2.,2013-06-12 03:06:00,
2013-06-11 23:12:00,55.7,54.5,29.59,NW,307,0.0,2.0,96,0.00,,,0.26,0,HR-IXPWINDi_r2_v1.2.,2013-06-12 03:12:00,
2013-06-11 23:18:00,55.6,54.4,29.59,NW,307,0.0,2.0,96,0.00,,,0.26,0,HR-IXPWINDi_r2_v1.2.,2013-06-12 03:18:00,
2013-06-11 23:23:00,55.6,54.4,29.59,NW,307,1.0,3.0,96,0.00,,,0.26,0,HR-IXPWINDi_r2_v1.2.,2013-06-12 03:23:00,
2013-06-11 23:29:00,55.7,54.5,29.59,NW,307,0.0,3.0,96,0.00,,,0.26,0,HR-IXPWINDi_r2_v1.2.,2013-06-12 03:29:00,
2013-06-11 23:35:00,55.7,54.5,29.59,NW,307,0.0,2.0,96,0.00,,,0.26,0,HR-IXPWINDi_r2_v1.2.,2013-06-12 03:35:00,
2013-06-11 23:40:00,55.8,54.6,29.59,West,276,2.0,3.0,96,0.00,,,0.26,0,HR-IXPWINDi_r2_v1.2.,2013-06-12 03:40:00,
2013-06-11 23:45:00,55.9,54.7,29.59,West,266,1.0,3.0,96,0.00,,,0.26,0,HR-IXPWINDi_r2_v1.2.,2013-06-12 03:45:00,
2013-06-11 23:50:00,55.9,54.7,29.59,WSW,240,2.0,4.0,96,0.00,,,0.26,0,HR-IXPWINDi_r2_v1.2.,2013-06-12 03:50:00,
2013-06-11 23:55:00,56.0,54.8,29.59,SW,234,3.0,4.0,96,0.00,,,0.26,0,HR-IXPWINDi_r2_v1.2.,2013-06-12 03:55:00,